Terug naar catalogus

STARLINK-30962

ActiefCommunicatieVLEO
NORAD 58458·PAYLOAD·🇺🇸 United States

Gelanceerd Nov 28, 2023 vanaf Cape Canaveral Space Force Station

Loading…

Volgende Passages (komende 24 uur)

TLE

VersSource: CelesTrak SupGP

Epoch: Sep 14, 2026, 21:07 UTC

1 58458C 23183X   26257.88034722  .00064716  00000+0  23438-2 0  2575
2 58458  43.0040  52.7372 0001300 273.9992  87.2811 15.27549638    12

Volg STARLINK-30962 in realtime met AllMySat

Download on the App Store